Regional Weather Roundup
Issued by NWS

Home | Current Version | Previous Version | Graphics & Text | Print | Product List | Glossary On
Versions: 1 2 3 4 5 6 7 8 9 10 11 12 13 14 15 16 17 18 19 20 21 22 23 24 25 26 27 28 29 30 31 32 33 34 35 36 37 38 39 40 41 42 43 44 45 46 47 48 49 50
000
ASUS43 KIND 221059
RWRIN

WEATHER ROUNDUP FOR INDIANA
NATIONAL WEATHER SERVICE INDIANAPOLIS IN
700 AM EDT WED MAR 22 2017

NOTE: "FAIR" INDICATES FEW OR NO CLOUDS BELOW 12,000 FEET WITH NO
SIGNIFICANT WEATHER AND/OR OBSTRUCTIONS TO VISIBILITY.

* - STATION DOES NOT REPORT WEATHER SUCH AS PRECIPITATION OR FOG.

+ - STATION NOT QUALITY CONTROLLED BY THE NATIONAL WEATHER SERVICE.
    USE DATA WITH CAUTION...ESPECIALLY DEWPOINT AND RELATIVE
    HUMIDITY OBSERVATIONS.

INZ001>003-010>013-019-020-221200-
NORTHWEST INDIANA

CITY           SKY/WX    TMP DP  RH WIND       PRES   REMARKS
GARY /AIRPORT/ MOCLDY    30  16  55 NE20      30.51R WCI  18
KNOX *+        CLEAR     23  -9  23 NE12      30.48R WCI  12
MONTICELLO +   CLEAR     25  12  57 NE10      30.45R WCI  15

$$

LMZ046-743>745-221200-
SOUTHERN LAKE MICHIGAN

STATION/POSITION TIME  TEMP    WIND        PRES    WAVE
                       AIR SEA DIR/SP/G            HT
                 (UTC) (F)     (DEG/KT/KT) (MB)    (FT)
BURNS HARBOR     1040   28      50/ 21/ 27 1032.8R
MICHIGAN CITY    1030   26      20/ 20/ 22   N/A

$$

INZ004-005-014>016-021>024-221200-
NORTH CENTRAL INDIANA

CITY           SKY/WX    TMP DP  RH WIND       PRES   REMARKS
ELKHART        CLEAR     21   9  58 N12       30.49  WCI   9
GOSHEN         CLEAR     21   8  57 NE8       30.47R WCI  11
SOUTH BEND     CLEAR     18   9  68 N9        30.50R WCI   7

$$

INZ006>009-017-018-025>027-221200-
NORTHEAST INDIANA

CITY           SKY/WX    TMP DP  RH WIND       PRES   REMARKS
ANGOLA *+      CLEAR     19   9  63 N7        30.44R WCI  10
FORT WAYNE     PTCLDY    23   9  55 NE14G22   30.45R WCI  11
KENDALLVILLE + CLEAR     20  10  63 NE14      30.45R WCI   7

$$

INZ028-029-035-036-043>045-051>053-221200-
WEST CENTRAL INDIANA

CITY           SKY/WX    TMP DP  RH WIND       PRES   REMARKS
CRAWFORDSVL +  PTCLDY    26  18  72 N8        30.43R WCI  17
GREENCASTLE +  PTCLDY    28  18  64 N10       30.41R WCI  19
LAFAYETTE      CLEAR     25  12  58 NE13      30.45R WCI  14
TERRE HAUTE    PTCLDY    31  23  72 N12       30.42R WCI  22

$$

INZ030>032-037>040-046>048-054>057-064-065-221200-
CENTRAL INDIANA

CITY           SKY/WX    TMP DP  RH WIND       PRES   REMARKS
COLUMBUS       CLEAR     30  27  86 N7        30.40  WCI  23
GREENWOOD *+   CLEAR     31  20  64 N10       30.40R WCI  22
INDIANAPOLIS   PTCLDY    29  16  58 N13       30.40R WCI  19
-EAGLE CREEK   PTCLDY    28  15  58 N10       30.40R WCI  19
SHELBYVILLE    PTCLDY    31  20  63 NE13      30.38R WCI  21

$$

INZ033-034-041-042-049-050-058-059-221200-
EAST CENTRAL INDIANA

CITY           SKY/WX    TMP DP  RH WIND       PRES   REMARKS
MUNCIE         PTCLDY    27  14  58 NE15      30.41R WCI  15
RICHMOND +     PTCLDY    27  14  59 NE17G24   30.37R WCI  14

$$

INZ060-061-067>069-081>083-085>088-221200-
SOUTHWEST INDIANA

CITY           SKY/WX    TMP DP  RH WIND       PRES   REMARKS
EVANSVILLE     PTCLDY    38  23  55 NE12      30.37R
HUNTINGBURG *+ PTCLDY    36  22  56 NE12      30.36R

$$

INZ062-063-066-070>080-084-089>092-221200-
SOUTH CENTRAL AND SOUTHEAST INDIANA

CITY           SKY/WX    TMP DP  RH WIND       PRES   REMARKS
BLOOMINGTON    CLEAR     32  17  54 NE7       30.38R WCI  26
MADISON *+     CLEAR     32  19  59 N3        30.38R
SEYMOUR +      CLEAR     34  21  60 NE9       30.39R WCI  26

$$





USA.gov is the U.S. government's official web portal to all federal, state and local government web resources and services.